EW5383 Weather Reports


Display with metric or nautical units.
time (UTC)temp
F
wind
direction
speed
MPH
gust
MPH
rain 1hr
in
rain 24hr
in
rain mn
in
humidity
%
barometer
mb
20260506211539 88 32 0.0 0.0 0.00 0.00 0.00 62 1015.3
20260506210033 90 25 0.0 0.0 0.00 0.00 0.00 61 1015.2
20260506204523 90 335 0.0 1.0 0.00 0.00 0.00 59 1015.2
20260506203016 90 160 0.0 0.0 0.00 0.00 0.00 58 1015.3
20260506201511 90 349 0.0 1.0 0.00 0.00 0.00 58 1015.3
20260506200010 91 83 0.0 0.0 0.00 0.00 0.00 59 1015.4
20260506194502 91 259 0.0 0.0 0.00 0.00 0.00 60 1015.4
20260506193100 91 360 0.0 2.0 0.00 0.00 0.00 60 1015.6
20260506191600 91 289 0.0 1.0 0.00 0.00 0.00 59 1015.5
20260506190052 92 220 0.0 1.0 0.00 0.00 0.00 60 1015.6
20260506184546 91 305 0.0 0.0 0.00 0.00 0.00 59 1016.0
20260506183042 92 41 0.0 1.0 0.00 0.00 0.00 59 1016.3
20260506181555 93 146 0.0 0.0 0.00 0.00 0.00 59 1016.4
20260506180035 92 325 0.0 1.0 0.00 0.00 0.00 60 1016.4
20260506174534 92 33 0.0 1.0 0.00 0.00 0.00 59 1016.5
20260506173046 92 2 0.0 1.0 0.00 0.00 0.00 59 1016.6
20260506171520 93 39 0.0 1.0 0.00 0.00 0.00 59 1016.6
20260506170015 92 23 0.0 1.0 0.00 0.00 0.00 59 1016.8
20260506164511 90 230 0.0 0.0 0.00 0.00 0.00 61 1016.8
20260506163012 92 34 0.0 1.0 0.00 0.00 0.00 57 1016.9
20260506161502 90 113 0.0 2.0 0.00 0.00 0.00 59 1016.9
20260506160057 88 195 0.0 2.0 0.00 0.00 0.00 59 1016.9
20260506154611 90 126 0.0 1.0 0.00 0.00 0.00 59 1016.9
20260506153052 89 226 0.0 1.0 0.00 0.00 0.00 62 1017.0
20260506151544 88 174 0.0 1.0 0.00 0.00 0.00 62 1017.0
20260506150039 87 228 0.0 0.0 0.00 0.00 0.00 62 1017.0
20260506144543 86 232 0.0 0.0 0.00 0.00 0.00 59 1016.9
20260506143034 84 190 0.0 1.0 0.00 0.00 0.00 55 1016.8
20260506141525 84 174 0.0 0.0 0.00 0.00 0.00 47 1016.9
20260506140023 82 144 0.0 1.0 0.00 0.00 0.00 40 1016.8
20260506134518 82 186 0.0 1.0 0.00 0.00 0.00 17 1016.9
20260506133012 81 157 0.0 0.0 0.00 0.00 0.00 1 1016.8
20260506131509 79 187 0.0 1.0 0.00 0.00 0.00 1 1016.7
20260506130005 79 123 0.0 0.0 0.00 0.00 0.00 1 1016.7
20260506124559 77 75 0.0 1.0 0.00 0.00 0.00 1 1016.6
20260506123054 75 170 0.0 0.0 0.00 0.00 0.00 1 1016.6
20260506121550 73 188 0.0 0.0 0.00 0.00 0.00 1 1016.3
20260506120045 70 128 0.0 0.0 0.00 0.00 0.00 1 1016.3
20260506114546 69 108 0.0 0.0 0.00 0.00 0.00 1 1016.1
20260506113037 69 160 0.0 0.0 0.00 0.00 0.00 1 1016.0
20260506111533 0 0.0 0.0 0.00 0.00 0.00 1016.0
20260506110028 0 0.0 0.0 0.00 0.00 0.00 1015.6
20260506104548 0 0.0 0.0 0.00 0.00 0.00 1015.6
20260506103019 0 0.0 0.0 0.00 0.00 0.00 1015.4
20260506101515 0 0.0 0.0 0.00 0.00 0.00 1015.4
20260506100010 0 0.0 0.0 0.00 0.00 0.00 1015.4
20260506094506 0 0.0 0.0 0.00 0.00 0.00 1015.2
20260506093001 0 0.0 0.0 0.00 0.00 0.00 1015.2
20260506091601 0 0.0 0.0 0.00 0.00 0.00 1015.2
20260506090052 0 0.0 0.0 0.00 0.00 0.00 1015.1
20260506084550 0 0.0 0.0 0.00 0.00 0.00 1015.4
20260506083048 0 0.0 0.0 0.00 0.00 0.00 1015.3
20260506081540 0 0.0 0.0 0.00 0.00 0.00 1015.2
20260506073027 0 0.0 0.0 0.00 0.00 0.00 1015.3
20260506071525 0 0.0 0.0 0.00 0.00 0.00 1015.5
20260506061505 0 0.0 0.0 0.00 0.00 0.00 1015.7
20260506044539 0 0.0 0.0 0.00 0.00 0.00 1016.3
20260506043039 0 0.0 0.0 0.00 0.00 0.00 1016.2
20260506041529 0 0.0 0.0 0.00 0.00 0.00 1016.2
20260506040040 75 139 0.0 1.0 0.00 0.00 0.00 29 1016.1
20260506034520 76 99 0.0 3.0 0.00 0.00 0.00 1 1016.3
20260506033025 75 131 0.0 1.0 0.00 0.00 0.00 1 1016.2
20260506031519 75 89 0.0 0.0 0.00 0.00 0.00 1 1016.2
20260506030021 74 97 0.0 1.0 0.00 0.00 0.00 1 1016.1
20260506024527 73 358 0.0 0.0 0.00 0.00 0.00 1 1016.0
20260506023017 74 358 0.0 0.0 0.00 0.00 0.00 1 1015.8
20260506021535 74 358 0.0 0.0 0.00 0.00 0.00 1 1015.5
20260506020016 74 358 0.0 0.0 0.00 0.00 0.00 1 1015.5
20260506014522 75 358 0.0 0.0 0.00 0.00 0.00 1 1015.5
20260506013013 75 358 0.0 0.0 0.00 0.00 0.00 1 1015.2
20260506011520 75 358 0.0 0.0 0.00 0.00 0.00 1 1015.2
20260506010010 75 358 0.0 0.0 0.00 0.00 0.00 1 1015.0
20260506004501 76 339 0.0 0.0 0.00 0.00 0.00 11 1014.9
20260506003107 76 339 0.0 0.0 0.00 0.00 0.00 27 1014.7
20260506001605 77 319 0.0 0.0 0.00 0.00 0.00 34 1014.5
20260506000047 77 334 0.0 0.0 0.00 0.00 0.00 38 1014.3
20260505234605 78 345 0.0 0.0 0.00 0.00 0.00 49 1014.2
20260505233040 79 345 0.0 0.0 0.00 0.00 0.00 58 1014.1
20260505231535 80 293 0.0 0.0 0.00 0.00 0.00 61 1014.2
20260505230029 81 109 0.0 0.0 0.00 0.00 0.00 64 1014.1
20260505224530 82 352 0.0 0.0 0.00 0.00 0.00 64 1014.2
20260505223020 82 342 0.0 1.0 0.00 0.00 0.00 64 1014.1
20260505221517 83 354 0.0 0.0 0.00 0.00 0.00 64 1014.1
20260505220011 83 295 0.0 1.0 0.00 0.00 0.00 64 1014.2
20260505214507 84 50 0.0 0.0 0.00 0.00 0.00 63 1014.0
20260505213004 85 315 0.0 1.0 0.00 0.00 0.00 61 1013.9
20260505211634 86 40 0.0 0.0 0.00 0.00 0.00 60 1013.9